GPS BIIF-9

Last updated on Tue Jul 01 2025 00:02:33 GMT+0000 (Coordinated Universal Time)

1 40534U 15013A 25181.06538274 .00000021 00000+0 00000+0 0 9999 2 40534 53.2340 218.7451 0099117 35.1961 325.5174 2.00572498 74763
UTC large
Height (km)
Speed (km/s)
/
Latitude / Longitude
Inclination (degrees)
Orbital Period (minutes)
Azimuth
Elevation
Range (km)
Doppler Factor

Next 0 passes for location: London (51.5072 / 0.1276)

Sorry there are no passes over London.